Regional Weather Roundup
Issued by NWS

Home | Current Version | Previous Version | Text Only | Print | Product List | Glossary Off
Versions: 1 2 3 4 5 6 7 8 9 10 11 12 13 14 15 16 17 18 19 20 21 22 23 24 25 26 27 28 29 30 31 32 33 34 35 36 37 38 39 40 41 42 43 44 45 46 47 48 49 50

000
ASUS43 KLMK 200802
RWRKY
KENTUCKY REGIONAL WEATHER ROUNDUP
NATIONAL WEATHER SERVICE LOUISVILLE KY
400 AM EDT SUN APR 20 2014

NOTE "FAIR" INDICATES FEW OR NO CLOUDS BELOW 12,000 FEET
WITH NO SIGNIFICANT WEATHER AND/OR OBSTRUCTIONS TO VISIBILITY.

KYZ001>023-026-027-061>063-070>075-200900-
WESTERN AND SOUTH CENTRAL KENTUCKY

CITY           SKY/WX    TMP DP  RH WIND       PRES   REMARKS
PADUCAH        CLEAR     51  44  77 CALM      30.17S
HENDERSON      CLEAR     48  43  81 CALM      30.19S
OWENSBORO      PTCLDY    52  42  68 NE5       30.20S
HOPKINSVILLE   PTCLDY    52  41  66 CALM      30.18S
BOWLING GREEN  CLEAR     49  39  68 CALM      30.18F
GLASGOW        NOT AVBL
$$

KYZ024-025-028>034-038-045-046-053-200900-
NORTH CENTRAL KENTUCKY

CITY           SKY/WX    TMP DP  RH WIND       PRES   REMARKS
LOUISVILLE/SDF PTCLDY    51  38  60 CALM      30.21R
LOUISVILLE/LOU CLEAR     58  34  40 NE5       30.21S
FORT KNOX      CLEAR     52  36  55 NE1       30.20R
$$

KYZ035>037-039>044-047>052-055>060-089>105-200900-
NORTHEAST KENTUCKY

CITY           SKY/WX    TMP DP  RH WIND       PRES   REMARKS
LEXINGTON      CLEAR     47  36  65 NE7       30.20S
COVINGTON      PTCLDY    50  34  54 NE6       30.23S
FRANKFORT      CLEAR     49  36  61 N5        30.20S
$$

KYZ054-064>069-076>088-106>120-200900-
SOUTHEAST KENTUCKY

CITY           SKY/WX    TMP DP  RH WIND       PRES   REMARKS
JACKSON        MOCLDY    54  31  41 NE3       30.20R
LONDON         PTCLDY    52  35  52 N3        30.18R
SOMERSET       NOT AVBL
MIDDLESBORO    NOT AVBL
MONTICELLO     SUNNY     45  38  76 S3        30.20R
$$




USA.gov is the U.S. government's official web portal to all federal, state and local government web resources and services.